FW6194 Weather Reports


time (UTC)temp
C
wind
direction
speed
KPH
gust
KPH
rain 1hr
cm
rain 24hr
cm
rain mn
cm
humidity
%
barometer
mb
20260505074522 11 89 0.0 0.0 0.00 0.00 0.00 68 1010.2
20260505073020 11 89 0.0 0.0 0.00 0.00 0.00 67 1010.2
20260505071524 12 89 0.0 0.0 0.00 0.00 0.00 66 1010.2
20260505070015 12 89 0.0 0.0 0.00 0.00 0.00 65 1010.2
20260505064513 12 89 0.0 0.0 0.00 0.00 0.00 63 1010.2
20260505063015 13 89 0.0 0.0 0.00 0.00 0.00 61 1010.2
20260505061523 13 89 0.0 0.0 0.00 0.00 0.00 61 1010.2
20260505060013 13 89 0.0 0.0 0.00 0.00 0.00 60 1010.2
20260505054518 14 89 0.0 1.6 0.00 0.00 0.00 56 1010.2
20260505053011 15 89 0.0 4.8 0.00 0.00 0.00 57 1010.2
20260505051510 15 89 0.0 3.2 0.00 0.00 0.00 59 1010.2
20260505041507 17 89 0.0 3.2 0.00 0.00 0.00 51 1010.2
20260505040009 17 89 3.2 4.8 0.00 0.00 0.00 48 1010.2
20260505034506 18 89 1.6 4.8 0.00 0.00 0.00 47 1010.2
20260505033008 19 89 1.6 6.4 0.00 0.00 0.00 44 1010.2
20260505031505 20 88 0.0 4.8 0.00 0.00 0.00 42 1010.2
20260505030005 22 34 1.6 3.2 0.00 0.00 0.00 40 1010.2
20260505024511 22 25 1.6 3.2 0.00 0.00 0.00 37 1010.2
20260505023003 23 360 1.6 3.2 0.00 0.00 0.00 36 1010.2
20260505021509 23 360 0.0 3.2 0.00 0.00 0.00 36 1010.2
20260505020003 23 20 1.6 6.4 0.00 0.00 0.00 32 1010.2
20260505014501 24 325 0.0 3.2 0.00 0.00 0.00 34 1010.2
20260505013001 25 325 1.6 4.8 0.00 0.00 0.00 33 1010.2
20260505011502 26 165 0.0 4.8 0.00 0.00 0.00 30 1010.2
20260505010002 26 139 0.0 3.2 0.00 0.00 0.00 33 1010.2
20260505004606 26 360 1.6 6.4 0.00 0.00 0.00 26 1010.2
20260505003059 26 355 4.8 9.7 0.00 0.00 0.00 28 1010.2
20260505001600 26 112 3.2 9.7 0.00 0.00 0.00 27 1010.2
20260505000059 26 286 1.6 12.9 0.00 0.00 0.00 26 1010.2
20260504234600 26 222 1.6 9.7 0.00 0.00 0.00 32 1010.2
20260504233102 26 119 3.2 8.0 0.00 0.00 0.00 29 1010.2
20260504231557 26 313 9.7 38.6 0.00 0.00 0.00 30 1010.2
20260504230058 26 273 4.8 14.5 0.00 0.00 0.00 27 1010.2
20260504224556 27 234 8.0 24.1 0.00 0.00 0.00 28 1010.2
20260504223059 27 315 1.6 17.7 0.00 0.00 0.00 25 1010.2
20260504221604 27 298 4.8 8.0 0.00 0.00 0.00 24 1010.2
20260504220117 26 183 4.8 14.5 0.00 0.00 0.00 29 1010.2
20260504214551 26 86 3.2 14.5 0.00 0.00 0.00 25 1010.2
20260504213102 26 218 3.2 17.7 0.00 0.00 0.00 32 1010.2
20260504211546 25 213 4.8 19.3 0.00 0.00 0.00 31 1010.2
20260504210047 25 245 4.8 12.9 0.00 0.00 0.00 30 1010.2
20260504204559 25 262 3.2 17.7 0.00 0.00 0.00 28 1010.2
20260504203044 25 300 4.8 12.9 0.00 0.00 0.00 28 1010.2
20260504201542 25 292 3.2 12.9 0.00 0.00 0.00 28 1010.2
20260504200044 25 302 1.6 14.5 0.00 0.00 0.00 32 1010.2
20260504194541 24 238 9.7 16.1 0.00 0.00 0.00 33 1010.2
20260504193037 24 204 4.8 16.1 0.00 0.00 0.00 32 1010.2
20260504191538 24 244 8.0 17.7 0.00 0.00 0.00 32 1010.2
20260504190036 23 204 3.2 14.5 0.00 0.00 0.00 33 1010.2
20260504184534 23 284 3.2 12.9 0.00 0.00 0.00 35 1010.2
20260504183027 22 253 6.4 16.1 0.00 0.00 0.00 39 1010.2
20260504181523 22 178 3.2 14.5 0.00 0.00 0.00 38 1010.2
20260504180020 21 236 4.8 11.3 0.00 0.00 0.00 43 1010.2
20260504174516 21 325 1.6 8.0 0.00 0.00 0.00 44 1010.2
20260504173012 20 166 0.0 4.8 0.00 0.00 0.00 47 1010.2
20260504171508 18 232 1.6 6.4 0.00 0.00 0.00 49 1010.2
20260504081557 9 304 0.0 0.0 0.00 0.00 0.00 72 1010.2